Location: Hokitika
(42.7170°S, 170.9670°E)
Time: 02:00:53
(UTC+13:00)

Cosmos 1242 Rocket - Pass Details

Date: 24 January 2019
Orbit: 449 x 490 km, 81.2° (Epoch: 15 February)

Event Time Altitude Azimuth Distance (km) Brightness Sun altitude
Rises 22:52:52 0° 195° (SSW) 2,609 7.4 -16.1°
Reaches altitude 10° 22:55:02 10° 199° (SSW) 1,719 6.4 -16.4°
Maximum altitude 22:58:43 54° 276° (W) 616 3.2 -16.8°
Enters shadow 23:00:51 22° 346° (NNW) 1,114 4.1 -17.1°
